Time,TemperatureF,DewpointF,PressureIn,WindDirection,WindDirectionDegrees,WindSpeedMPH,WindSpeedGustMPH,Humidity,HourlyPrecipIn,Conditions,Clouds,dailyrainin,SoftwareType,DateUTC
2013-04-26 00:00:00,51.2,39.0,24.17,WSW,248,0.0,0.0,63,0.00,,,0.00,VWS V13.01,2013-04-26 04:00:00,
2013-04-26 01:00:00,48.8,38.7,24.17,WSW,248,0.0,0.0,68,0.00,,,0.00,VWS V13.01,2013-04-26 05:00:00,
2013-04-26 02:00:00,46.5,38.3,24.17,WSW,248,0.0,0.0,73,0.00,,,0.00,VWS V13.01,2013-04-26 06:00:00,
2013-04-26 03:00:00,44.8,37.7,24.17,WSW,248,0.0,0.0,76,0.00,,,0.00,VWS V13.01,2013-04-26 07:00:00,
2013-04-26 04:00:00,43.2,36.8,24.17,WSW,248,0.0,0.0,78,0.00,,,0.00,VWS V13.01,2013-04-26 08:00:00,
2013-04-26 05:00:00,43.1,35.7,24.17,WSW,248,0.0,0.0,75,0.00,,,0.00,VWS V13.01,2013-04-26 09:00:00,
2013-04-26 06:00:00,42.7,35.7,24.17,WSW,248,0.0,0.0,76,0.00,,,0.00,VWS V13.01,2013-04-26 10:00:00,
2013-04-26 07:00:00,42.3,35.3,24.17,WSW,248,0.0,0.0,76,0.00,,,0.00,VWS V13.01,2013-04-26 11:00:00,
2013-04-26 08:00:00,49.1,33.2,24.29,NW,315,1.0,7.0,54,0.00,,,0.00,VWS V13.01,2013-04-26 12:00:00,
2013-04-26 09:00:00,54.3,36.6,24.30,NW,315,3.0,10.0,51,0.00,,,0.00,VWS V13.01,2013-04-26 13:00:00,
2013-04-26 10:00:00,58.3,39.2,24.30,NW,315,2.0,8.0,49,0.00,,,0.00,VWS V13.01,2013-04-26 14:00:00,
2013-04-26 11:00:00,61.3,37.4,24.27,WNW,292,1.0,7.0,41,0.00,,,0.00,VWS V13.01,2013-04-26 15:00:00,
2013-04-26 12:00:00,62.5,36.6,24.17,West,270,2.0,10.0,38,0.00,,,0.00,VWS V13.01,2013-04-26 16:00:00,
2013-04-26 13:00:00,62.8,35.5,24.17,WSW,248,2.0,10.0,36,0.00,,,0.00,VWS V13.01,2013-04-26 17:00:00,
2013-04-26 14:00:00,63.1,34.3,24.17,West,270,2.0,11.0,34,0.00,,,0.00,VWS V13.01,2013-04-26 18:00:00,
2013-04-26 15:00:00,65.0,33.7,24.17,West,270,2.0,9.0,31,0.00,,,0.00,VWS V13.01,2013-04-26 19:00:00,
2013-04-26 16:00:00,66.2,31.3,24.17,West,270,2.0,10.0,27,0.00,,,0.00,VWS V13.01,2013-04-26 20:00:00,
2013-04-26 17:00:00,67.9,30.8,24.17,NW,315,1.0,9.0,25,0.00,,,0.00,VWS V13.01,2013-04-26 21:00:00,
2013-04-26 17:35:00,69.9,33.5,24.17,WNW,286,0.0,1.0,26,0.00,,,0.00,VWS V13.01,2013-04-26 21:35:00,
2013-04-26 17:36:00,69.9,33.5,24.17,WNW,286,0.0,1.0,26,0.00,,,0.00,VWS V13.01,2013-04-26 21:36:00,
2013-04-26 17:40:00,70.2,33.7,24.17,WNW,286,0.0,1.0,26,0.00,,,0.00,VWS V13.01,2013-04-26 21:40:00,
2013-04-26 17:41:00,70.2,33.7,24.17,WNW,286,0.0,1.0,26,0.00,,,0.00,VWS V13.01,2013-04-26 21:41:00,
2013-04-26 17:46:00,70.4,34.9,24.17,NW,321,0.0,1.0,27,0.00,,,0.00,VWS V13.01,2013-04-26 21:46:00,
2013-04-26 17:51:00,70.3,33.8,24.17,NNW,348,0.0,3.0,26,0.00,,,0.00,VWS V13.01,2013-04-26 21:51:00,
2013-04-26 17:56:00,70.5,35.9,24.15,North,350,0.0,3.0,28,0.00,,,0.00,VWS V13.01,2013-04-26 21:56:00,
2013-04-26 18:01:00,70.4,33.9,24.15,NNE,21,0.0,6.0,26,0.00,,,0.00,VWS V13.01,2013-04-26 22:01:00,
2013-04-26 18:02:00,70.4,33.9,24.15,NNE,21,0.0,6.0,26,0.00,,,0.00,VWS V13.01,2013-04-26 22:02:00,
2013-04-26 18:06:00,70.3,33.8,24.15,NNE,21,0.0,1.0,26,0.00,,,0.00,VWS V13.01,2013-04-26 22:06:00,
2013-04-26 18:07:00,70.3,34.8,24.15,NNE,21,0.0,1.0,27,0.00,,,0.00,VWS V13.01,2013-04-26 22:07:00,
2013-04-26 18:11:00,70.4,33.9,24.15,NNW,327,4.0,4.0,26,0.00,,,0.00,VWS V13.01,2013-04-26 22:11:00,
2013-04-26 18:12:00,70.4,32.9,24.15,NW,326,0.0,4.0,25,0.00,,,0.00,VWS V13.01,2013-04-26 22:12:00,
2013-04-26 18:16:00,70.3,33.8,24.15,NNW,329,0.0,4.0,26,0.00,,,0.00,VWS V13.01,2013-04-26 22:16:00,
2013-04-26 18:17:00,70.2,33.7,24.15,NW,319,0.0,4.0,26,0.00,,,0.00,VWS V13.01,2013-04-26 22:17:00,
2013-04-26 18:21:00,69.8,33.4,24.15,West,265,0.0,6.0,26,0.00,,,0.00,VWS V13.01,2013-04-26 22:21:00,
2013-04-26 18:22:00,69.8,33.4,24.15,West,265,0.0,6.0,26,0.00,,,0.00,VWS V13.01,2013-04-26 22:22:00,
2013-04-26 18:23:00,69.6,33.2,24.15,West,264,2.0,6.0,26,0.00,,,0.00,VWS V13.01,2013-04-26 22:23:00,
2013-04-26 18:26:00,68.8,31.6,24.15,West,265,0.0,6.0,25,0.00,,,0.00,VWS V13.01,2013-04-26 22:26:00,
2013-04-26 18:27:00,68.8,31.6,24.15,West,265,4.0,6.0,25,0.00,,,0.00,VWS V13.01,2013-04-26 22:27:00,
2013-04-26 18:28:00,68.5,32.3,24.15,West,264,0.0,6.0,26,0.00,,,0.00,VWS V13.01,2013-04-26 22:28:00,
2013-04-26 18:31:00,67.9,32.7,24.15,West,265,1.0,6.0,27,0.00,,,0.00,VWS V13.01,2013-04-26 22:31:00,
2013-04-26 18:32:00,67.9,32.7,24.15,West,265,0.0,6.0,27,0.00,,,0.00,VWS V13.01,2013-04-26 22:32:00,
2013-04-26 18:33:00,67.7,32.5,24.15,West,265,0.0,6.0,27,0.00,,,0.00,VWS V13.01,2013-04-26 22:33:00,
2013-04-26 18:37:00,67.5,32.4,24.15,West,265,0.0,6.0,27,0.00,,,0.00,VWS V13.01,2013-04-26 22:37:00,
2013-04-26 18:38:00,67.5,32.4,24.15,West,265,1.0,6.0,27,0.00,,,0.00,VWS V13.01,2013-04-26 22:38:00,
2013-04-26 18:42:00,67.3,32.2,24.15,West,264,0.0,6.0,27,0.00,,,0.00,VWS V13.01,2013-04-26 22:42:00,
2013-04-26 18:43:00,67.2,32.1,24.15,West,265,0.0,6.0,27,0.00,,,0.00,VWS V13.01,2013-04-26 22:43:00,
2013-04-26 18:47:00,67.0,32.0,24.15,West,264,0.0,6.0,27,0.00,,,0.00,VWS V13.01,2013-04-26 22:47:00,
2013-04-26 18:48:00,66.9,32.8,24.15,West,265,0.0,6.0,28,0.00,,,0.00,VWS V13.01,2013-04-26 22:48:00,
2013-04-26 18:52:00,66.6,32.5,24.15,West,265,0.0,6.0,28,0.00,,,0.00,VWS V13.01,2013-04-26 22:52:00,
2013-04-26 18:53:00,66.5,32.4,24.15,West,265,0.0,6.0,28,0.00,,,0.00,VWS V13.01,2013-04-26 22:53:00,
2013-04-26 18:54:00,66.4,31.4,24.15,West,264,0.0,6.0,27,0.00,,,0.00,VWS V13.01,2013-04-26 22:54:00,
2013-04-26 18:57:00,66.1,33.0,24.15,West,265,0.0,6.0,29,0.00,,,0.00,VWS V13.01,2013-04-26 22:57:00,
2013-04-26 18:58:00,66.0,32.0,24.15,West,264,0.0,6.0,28,0.00,,,0.00,VWS V13.01,2013-04-26 22:58:00,
2013-04-26 18:59:00,66.0,32.0,24.15,West,265,0.0,6.0,28,0.00,,,0.00,VWS V13.01,2013-04-26 22:59:00,
2013-04-26 19:02:00,65.8,31.8,24.15,West,265,0.0,6.0,28,0.00,,,0.00,VWS V13.01,2013-04-26 23:02:00,
2013-04-26 19:03:00,65.7,31.7,24.15,West,264,0.0,6.0,28,0.00,,,0.00,VWS V13.01,2013-04-26 23:03:00,
2013-04-26 19:04:00,65.6,31.6,24.15,West,265,0.0,0.0,28,0.00,,,0.00,VWS V13.01,2013-04-26 23:04:00,
2013-04-26 19:07:00,65.4,31.5,24.15,West,265,0.0,0.0,28,0.00,,,0.00,VWS V13.01,2013-04-26 23:07:00,
2013-04-26 19:08:00,65.3,31.4,24.15,West,265,0.0,0.0,28,0.00,,,0.00,VWS V13.01,2013-04-26 23:08:00,
2013-04-26 19:09:00,65.1,31.2,24.15,West,265,0.0,0.0,28,0.00,,,0.00,VWS V13.01,2013-04-26 23:09:00,
2013-04-26 19:12:00,64.9,31.0,24.15,West,265,0.0,0.0,28,0.00,,,0.00,VWS V13.01,2013-04-26 23:12:00,
2013-04-26 19:13:00,64.9,31.0,24.15,West,265,0.0,0.0,28,0.00,,,0.00,VWS V13.01,2013-04-26 23:13:00,
2013-04-26 19:15:00,64.6,31.6,24.15,West,265,0.0,0.0,29,0.00,,,0.00,VWS V13.01,2013-04-26 23:15:00,
2013-04-26 19:18:00,64.5,33.2,24.15,West,264,0.0,0.0,31,0.00,,,0.00,VWS V13.01,2013-04-26 23:18:00,
2013-04-26 19:20:00,64.4,32.3,24.15,West,264,0.0,0.0,30,0.00,,,0.00,VWS V13.01,2013-04-26 23:20:00,
2013-04-26 19:23:00,64.3,32.2,24.15,West,265,0.0,0.0,30,0.00,,,0.00,VWS V13.01,2013-04-26 23:23:00,
2013-04-26 19:24:00,64.3,33.0,24.15,West,265,0.0,0.0,31,0.00,,,0.00,VWS V13.01,2013-04-26 23:24:00,
2013-04-26 19:25:00,64.2,33.0,24.15,West,265,0.0,0.0,31,0.00,,,0.00,VWS V13.01,2013-04-26 23:25:00,
2013-04-26 19:28:00,64.2,32.2,24.15,West,265,0.0,0.0,30,0.00,,,0.00,VWS V13.01,2013-04-26 23:28:00,
2013-04-26 19:29:00,64.2,32.2,24.15,West,265,0.0,0.0,30,0.00,,,0.00,VWS V13.01,2013-04-26 23:29:00,
2013-04-26 19:30:00,64.1,32.1,24.15,West,265,0.0,0.0,30,0.00,,,0.00,VWS V13.01,2013-04-26 23:30:00,
2013-04-26 19:33:00,64.1,32.1,24.15,West,265,0.0,0.0,30,0.00,,,0.00,VWS V13.01,2013-04-26 23:33:00,
2013-04-26 19:34:00,64.1,32.1,24.15,West,265,0.0,0.0,30,0.00,,,0.00,VWS V13.01,2013-04-26 23:34:00,
2013-04-26 19:36:00,64.0,32.0,24.15,West,265,0.0,0.0,30,0.00,,,0.00,VWS V13.01,2013-04-26 23:36:00,
2013-04-26 19:38:00,63.9,31.9,24.15,West,265,0.0,0.0,30,0.00,,,0.00,VWS V13.01,2013-04-26 23:38:00,
2013-04-26 19:39:00,63.9,31.9,24.15,West,265,0.0,0.0,30,0.00,,,0.00,VWS V13.01,2013-04-26 23:39:00,
2013-04-26 19:41:00,63.8,32.6,24.15,West,265,0.0,0.0,31,0.00,,,0.00,VWS V13.01,2013-04-26 23:41:00,
2013-04-26 19:43:00,63.6,32.4,24.15,West,264,0.0,0.0,31,0.00,,,0.00,VWS V13.01,2013-04-26 23:43:00,
2013-04-26 19:44:00,63.6,32.4,24.15,West,264,0.0,0.0,31,0.00,,,0.00,VWS V13.01,2013-04-26 23:44:00,
2013-04-26 19:46:00,63.5,31.5,24.15,West,265,0.0,0.0,30,0.00,,,0.00,VWS V13.01,2013-04-26 23:46:00,
2013-04-26 19:48:00,63.4,32.3,24.15,West,265,0.0,0.0,31,0.00,,,0.00,VWS V13.01,2013-04-26 23:48:00,
2013-04-26 19:49:00,63.3,32.2,24.15,West,265,0.0,0.0,31,0.00,,,0.00,VWS V13.01,2013-04-26 23:49:00,
2013-04-26 19:51:00,63.2,32.1,24.15,West,265,0.0,0.0,31,0.00,,,0.00,VWS V13.01,2013-04-26 23:51:00,
2013-04-26 19:53:00,63.1,32.0,24.15,West,265,0.0,0.0,31,0.00,,,0.00,VWS V13.01,2013-04-26 23:53:00,
2013-04-26 19:54:00,63.1,32.0,24.15,West,265,0.0,0.0,31,0.00,,,0.00,VWS V13.01,2013-04-26 23:54:00,
2013-04-26 20:06:00,62.5,32.3,24.15,West,264,0.0,0.0,32,0.00,,,0.00,VWS V13.01,2013-04-27 00:06:00,
2013-04-26 20:11:00,62.2,32.0,24.15,West,265,0.0,0.0,32,0.00,,,0.00,VWS V13.01,2013-04-27 00:11:00,
2013-04-26 20:16:00,61.8,31.6,24.15,West,265,0.0,0.0,32,0.00,,,0.00,VWS V13.01,2013-04-27 00:16:00,
2013-04-26 20:21:00,61.2,31.1,24.15,West,265,0.0,0.0,32,0.00,,,0.00,VWS V13.01,2013-04-27 00:21:00,
2013-04-26 20:26:00,60.6,31.4,24.15,West,264,0.0,0.0,33,0.00,,,0.00,VWS V13.01,2013-04-27 00:26:00,
2013-04-26 20:27:00,60.6,31.4,24.15,West,265,0.0,0.0,33,0.00,,,0.00,VWS V13.01,2013-04-27 00:27:00,
2013-04-26 20:32:00,60.2,33.2,24.15,West,265,0.0,4.0,36,0.00,,,0.00,VWS V13.01,2013-04-27 00:32:00,
2013-04-26 20:37:00,60.1,33.8,24.15,West,264,0.0,4.0,37,0.00,,,0.00,VWS V13.01,2013-04-27 00:37:00,
2013-04-26 20:42:00,59.9,34.9,24.15,West,265,0.0,4.0,39,0.00,,,0.00,VWS V13.01,2013-04-27 00:42:00,
2013-04-26 20:43:00,59.9,34.9,24.15,West,265,0.0,4.0,39,0.00,,,0.00,VWS V13.01,2013-04-27 00:43:00,
2013-04-26 20:47:00,59.7,34.7,24.15,West,265,0.0,4.0,39,0.00,,,0.00,VWS V13.01,2013-04-27 00:47:00,
2013-04-26 20:48:00,59.7,34.7,24.15,West,264,0.0,4.0,39,0.00,,,0.00,VWS V13.01,2013-04-27 00:48:00,
2013-04-26 20:52:00,59.4,35.1,24.15,West,264,0.0,4.0,40,0.00,,,0.00,VWS V13.01,2013-04-27 00:52:00,
2013-04-26 20:53:00,59.3,35.0,24.15,West,265,0.0,4.0,40,0.00,,,0.00,VWS V13.01,2013-04-27 00:53:00,
2013-04-26 20:57:00,59.0,34.7,24.15,West,265,0.0,4.0,40,0.00,,,0.00,VWS V13.01,2013-04-27 00:57:00,
2013-04-26 20:58:00,59.0,34.7,24.15,West,265,0.0,4.0,40,0.00,,,0.00,VWS V13.01,2013-04-27 00:58:00,
2013-04-26 21:03:00,58.8,35.2,24.15,West,265,0.0,4.0,41,0.00,,,0.00,VWS V13.01,2013-04-27 01:03:00,
2013-04-26 21:08:00,58.4,34.8,24.15,West,265,0.0,0.0,41,0.00,,,0.00,VWS V13.01,2013-04-27 01:08:00,
2013-04-26 21:09:00,58.3,34.7,24.15,West,265,0.0,0.0,41,0.00,,,0.00,VWS V13.01,2013-04-27 01:09:00,
2013-04-26 21:13:00,58.0,35.7,24.15,West,265,0.0,0.0,43,0.00,,,0.00,VWS V13.01,2013-04-27 01:13:00,
2013-04-26 21:14:00,58.0,35.7,24.15,West,264,0.0,0.0,43,0.00,,,0.00,VWS V13.01,2013-04-27 01:14:00,
2013-04-26 21:18:00,57.7,36.0,24.15,West,265,0.0,0.0,44,0.00,,,0.00,VWS V13.01,2013-04-27 01:18:00,
2013-04-26 21:19:00,57.7,36.0,24.15,West,265,0.0,0.0,44,0.00,,,0.00,VWS V13.01,2013-04-27 01:19:00,
2013-04-26 21:23:00,57.3,35.6,24.15,West,264,0.0,1.0,44,0.00,,,0.00,VWS V13.01,2013-04-27 01:23:00,
2013-04-26 21:24:00,57.3,35.6,24.15,West,265,0.0,1.0,44,0.00,,,0.00,VWS V13.01,2013-04-27 01:24:00,
2013-04-26 21:28:00,56.9,36.3,24.15,West,265,0.0,2.0,46,0.00,,,0.00,VWS V13.01,2013-04-27 01:28:00,
2013-04-26 21:29:00,56.9,36.3,24.15,West,264,0.0,2.0,46,0.00,,,0.00,VWS V13.01,2013-04-27 01:29:00,
2013-04-26 21:33:00,56.6,36.6,24.15,West,265,0.0,2.0,47,0.00,,,0.00,VWS V13.01,2013-04-27 01:33:00,
2013-04-26 21:34:00,56.6,36.6,24.15,West,265,0.0,2.0,47,0.00,,,0.00,VWS V13.01,2013-04-27 01:34:00,
2013-04-26 21:35:00,56.6,36.6,24.15,West,264,0.0,2.0,47,0.00,,,0.00,VWS V13.01,2013-04-27 01:35:00,
2013-04-26 21:39:00,56.4,36.4,24.15,West,264,0.0,2.0,47,0.00,,,0.00,VWS V13.01,2013-04-27 01:39:00,
2013-04-26 21:40:00,56.3,36.3,24.15,West,264,0.0,2.0,47,0.00,,,0.00,VWS V13.01,2013-04-27 01:40:00,
2013-04-26 21:44:00,56.1,36.2,24.15,West,265,0.0,2.0,47,0.00,,,0.00,VWS V13.01,2013-04-27 01:44:00,
2013-04-26 21:45:00,56.1,36.2,24.15,West,264,0.0,2.0,47,0.00,,,0.00,VWS V13.01,2013-04-27 01:45:00,
2013-04-26 21:49:00,55.9,36.5,24.15,West,264,0.0,2.0,48,0.00,,,0.00,VWS V13.01,2013-04-27 01:49:00,
2013-04-26 21:50:00,55.8,36.4,24.15,West,264,0.0,2.0,48,0.00,,,0.00,VWS V13.01,2013-04-27 01:50:00,
2013-04-26 21:54:00,55.6,36.2,24.15,West,265,0.0,2.0,48,0.00,,,0.00,VWS V13.01,2013-04-27 01:54:00,
2013-04-26 21:55:00,55.6,36.2,24.15,West,264,0.0,2.0,48,0.00,,,0.00,VWS V13.01,2013-04-27 01:55:00,
2013-04-26 21:59:00,55.4,36.1,24.15,West,264,0.0,2.0,48,0.00,,,0.00,VWS V13.01,2013-04-27 01:59:00,
2013-04-26 22:00:00,55.3,36.0,24.15,West,264,0.0,2.0,48,0.00,,,0.00,VWS V13.01,2013-04-27 02:00:00,
2013-04-26 22:04:00,55.1,36.3,24.15,West,265,0.0,0.0,49,0.00,,,0.00,VWS V13.01,2013-04-27 02:04:00,
2013-04-26 22:05:00,55.1,35.8,24.15,West,265,0.0,0.0,48,0.00,,,0.00,VWS V13.01,2013-04-27 02:05:00,
2013-04-26 22:06:00,55.1,35.8,24.15,West,265,0.0,0.0,48,0.00,,,0.00,VWS V13.01,2013-04-27 02:06:00,
2013-04-26 22:09:00,54.9,36.1,24.15,West,264,0.0,0.0,49,0.00,,,0.00,VWS V13.01,2013-04-27 02:09:00,
2013-04-26 22:10:00,54.9,36.1,24.15,West,264,0.0,0.0,49,0.00,,,0.00,VWS V13.01,2013-04-27 02:10:00,
2013-04-26 22:11:00,54.8,36.0,24.15,West,265,0.0,0.0,49,0.00,,,0.00,VWS V13.01,2013-04-27 02:11:00,
2013-04-26 22:14:00,54.7,36.4,24.15,West,264,0.0,0.0,50,0.00,,,0.00,VWS V13.01,2013-04-27 02:14:00,
2013-04-26 22:15:00,54.7,36.9,24.15,West,264,0.0,0.0,51,0.00,,,0.00,VWS V13.01,2013-04-27 02:15:00,
2013-04-26 22:16:00,54.6,36.8,24.15,West,264,0.0,0.0,51,0.00,,,0.00,VWS V13.01,2013-04-27 02:16:00,
2013-04-26 22:19:00,54.5,36.8,24.15,West,265,0.0,0.0,51,0.00,,,0.00,VWS V13.01,2013-04-27 02:19:00,
2013-04-26 22:20:00,54.5,36.8,24.15,West,264,0.0,0.0,51,0.00,,,0.00,VWS V13.01,2013-04-27 02:20:00,
2013-04-26 22:21:00,54.4,36.7,24.15,West,265,0.0,0.0,51,0.00,,,0.00,VWS V13.01,2013-04-27 02:21:00,
2013-04-26 22:24:00,54.2,36.5,24.15,West,265,0.0,1.0,51,0.00,,,0.00,VWS V13.01,2013-04-27 02:24:00,
2013-04-26 22:26:00,54.2,37.0,24.15,West,265,0.0,1.0,52,0.00,,,0.00,VWS V13.01,2013-04-27 02:26:00,
2013-04-26 22:29:00,54.2,37.0,24.15,West,264,0.0,1.0,52,0.00,,,0.00,VWS V13.01,2013-04-27 02:29:00,
2013-04-26 22:31:00,54.3,36.1,24.15,West,265,0.0,1.0,50,0.00,,,0.00,VWS V13.01,2013-04-27 02:31:00,
2013-04-26 22:32:00,54.3,36.6,24.15,West,265,0.0,1.0,51,0.00,,,0.00,VWS V13.01,2013-04-27 02:32:00,
2013-04-26 22:34:00,54.3,36.6,24.15,West,264,0.0,1.0,51,0.00,,,0.00,VWS V13.01,2013-04-27 02:34:00,
2013-04-26 22:36:00,54.3,35.0,24.15,West,265,0.0,1.0,48,0.00,,,0.00,VWS V13.01,2013-04-27 02:36:00,
2013-04-26 22:37:00,54.3,34.5,24.15,West,264,0.0,1.0,47,0.00,,,0.00,VWS V13.01,2013-04-27 02:37:00,
2013-04-26 22:40:00,54.4,34.1,24.15,West,265,0.0,1.0,46,0.00,,,0.00,VWS V13.01,2013-04-27 02:40:00,
2013-04-26 22:41:00,54.5,33.6,24.15,West,264,0.0,2.0,45,0.00,,,0.00,VWS V13.01,2013-04-27 02:41:00,
2013-04-26 22:42:00,54.5,33.6,24.15,West,265,0.0,2.0,45,0.00,,,0.00,VWS V13.01,2013-04-27 02:42:00,
2013-04-26 22:45:00,54.6,33.7,24.15,West,265,0.0,2.0,45,0.00,,,0.00,VWS V13.01,2013-04-27 02:45:00,
2013-04-26 22:46:00,54.7,33.8,24.15,West,265,0.0,2.0,45,0.00,,,0.00,VWS V13.01,2013-04-27 02:46:00,
2013-04-26 22:47:00,54.7,33.8,24.15,West,264,0.0,2.0,45,0.00,,,0.00,VWS V13.01,2013-04-27 02:47:00,
2013-04-26 22:50:00,54.8,34.4,24.15,West,264,0.0,2.0,46,0.00,,,0.00,VWS V13.01,2013-04-27 02:50:00,
2013-04-26 22:51:00,54.8,33.9,24.15,West,264,0.0,2.0,45,0.00,,,0.00,VWS V13.01,2013-04-27 02:51:00,
2013-04-26 22:52:00,54.8,33.9,24.15,West,264,0.0,2.0,45,0.00,,,0.00,VWS V13.01,2013-04-27 02:52:00,
2013-04-26 22:55:00,54.8,33.9,24.15,West,265,0.0,2.0,45,0.00,,,0.00,VWS V13.01,2013-04-27 02:55:00,
2013-04-26 22:56:00,54.9,33.4,24.15,West,265,0.0,2.0,44,0.00,,,0.00,VWS V13.01,2013-04-27 02:56:00,
2013-04-26 22:57:00,54.9,34.0,24.15,West,264,0.0,2.0,45,0.00,,,0.00,VWS V13.01,2013-04-27 02:57:00,
2013-04-26 23:00:00,54.9,34.5,24.15,West,265,0.0,2.0,46,0.00,,,0.00,VWS V13.01,2013-04-27 03:00:00,
2013-04-26 23:01:00,54.9,34.5,24.15,West,265,0.0,2.0,46,0.00,,,0.00,VWS V13.01,2013-04-27 03:01:00,
2013-04-26 23:02:00,54.9,34.5,24.15,West,264,0.0,2.0,46,0.00,,,0.00,VWS V13.01,2013-04-27 03:02:00,
2013-04-26 23:03:00,54.9,34.5,24.15,West,265,0.0,2.0,46,0.00,,,0.00,VWS V13.01,2013-04-27 03:03:00,
2013-04-26 23:05:00,54.8,34.4,24.15,West,265,0.0,1.0,46,0.00,,,0.00,VWS V13.01,2013-04-27 03:05:00,
2013-04-26 23:07:00,54.8,33.9,24.15,West,265,0.0,1.0,45,0.00,,,0.00,VWS V13.01,2013-04-27 03:07:00,
2013-04-26 23:08:00,54.8,34.4,24.15,West,265,0.0,1.0,46,0.00,,,0.00,VWS V13.01,2013-04-27 03:08:00,
2013-04-26 23:10:00,54.8,33.9,24.15,West,265,0.0,1.0,45,0.00,,,0.00,VWS V13.01,2013-04-27 03:10:00,
2013-04-26 23:12:00,54.8,33.9,24.15,West,265,0.0,1.0,45,0.00,,,0.00,VWS V13.01,2013-04-27 03:12:00,
2013-04-26 23:13:00,54.8,33.9,24.15,West,265,0.0,1.0,45,0.00,,,0.00,VWS V13.01,2013-04-27 03:13:00,
2013-04-26 23:15:00,54.8,33.9,24.15,West,264,0.0,1.0,45,0.00,,,0.00,VWS V13.01,2013-04-27 03:15:00,
2013-04-26 23:17:00,54.9,34.5,24.15,West,265,0.0,1.0,46,0.00,,,0.00,VWS V13.01,2013-04-27 03:17:00,
2013-04-26 23:18:00,54.9,34.5,24.15,West,265,0.0,1.0,46,0.00,,,0.00,VWS V13.01,2013-04-27 03:18:00,
2013-04-26 23:21:00,54.9,34.0,24.15,West,265,0.0,1.0,45,0.00,,,0.00,VWS V13.01,2013-04-27 03:21:00,
2013-04-26 23:22:00,54.9,34.5,24.15,West,264,0.0,1.0,46,0.00,,,0.00,VWS V13.01,2013-04-27 03:22:00,
2013-04-26 23:23:00,54.9,34.5,24.15,West,265,0.0,1.0,46,0.00,,,0.00,VWS V13.01,2013-04-27 03:23:00,
2013-04-26 23:24:00,54.9,34.0,24.15,West,265,0.0,1.0,45,0.00,,,0.00,VWS V13.01,2013-04-27 03:24:00,
2013-04-26 23:26:00,54.9,34.5,24.15,West,264,0.0,1.0,46,0.00,,,0.00,VWS V13.01,2013-04-27 03:26:00,
2013-04-26 23:27:00,54.9,34.5,24.15,West,265,0.0,1.0,46,0.00,,,0.00,VWS V13.01,2013-04-27 03:27:00,
2013-04-26 23:28:00,54.9,34.5,24.15,West,265,0.0,1.0,46,0.00,,,0.00,VWS V13.01,2013-04-27 03:28:00,
2013-04-26 23:29:00,54.9,34.5,24.15,West,265,0.0,1.0,46,0.00,,,0.00,VWS V13.01,2013-04-27 03:29:00,
2013-04-26 23:31:00,54.8,34.4,24.15,West,264,0.0,1.0,46,0.00,,,0.00,VWS V13.01,2013-04-27 03:31:00,
2013-04-26 23:32:00,54.8,34.4,24.15,West,264,0.0,1.0,46,0.00,,,0.00,VWS V13.01,2013-04-27 03:32:00,
2013-04-26 23:33:00,54.8,34.4,24.15,West,264,0.0,1.0,46,0.00,,,0.00,VWS V13.01,2013-04-27 03:33:00,
2013-04-26 23:34:00,54.8,34.4,24.15,West,265,0.0,2.0,46,0.00,,,0.00,VWS V13.01,2013-04-27 03:34:00,
2013-04-26 23:36:00,54.8,34.4,24.15,West,265,0.0,2.0,46,0.00,,,0.00,VWS V13.01,2013-04-27 03:36:00,
2013-04-26 23:37:00,54.8,34.4,24.15,West,265,0.0,2.0,46,0.00,,,0.00,VWS V13.01,2013-04-27 03:37:00,
2013-04-26 23:38:00,54.8,34.4,24.15,West,264,0.0,2.0,46,0.00,,,0.00,VWS V13.01,2013-04-27 03:38:00,
2013-04-26 23:39:00,54.8,34.4,24.15,West,265,0.0,2.0,46,0.00,,,0.00,VWS V13.01,2013-04-27 03:39:00,
2013-04-26 23:41:00,54.8,34.4,24.15,West,264,0.0,2.0,46,0.00,,,0.00,VWS V13.01,2013-04-27 03:41:00,
2013-04-26 23:42:00,54.8,34.4,24.15,West,265,0.0,2.0,46,0.00,,,0.00,VWS V13.01,2013-04-27 03:42:00,
2013-04-26 23:43:00,54.8,34.4,24.15,West,264,0.0,2.0,46,0.00,,,0.00,VWS V13.01,2013-04-27 03:43:00,
2013-04-26 23:45:00,54.8,34.4,24.15,West,265,0.0,2.0,46,0.00,,,0.00,VWS V13.01,2013-04-27 03:45:00,
2013-04-26 23:47:00,54.8,35.0,24.15,NNE,26,0.0,4.0,47,0.00,,,0.00,VWS V13.01,2013-04-27 03:47:00,
2013-04-26 23:48:00,54.8,35.0,24.15,NNE,26,0.0,4.0,47,0.00,,,0.00,VWS V13.01,2013-04-27 03:48:00,
2013-04-26 23:50:00,54.8,35.0,24.15,NNE,26,0.0,4.0,47,0.00,,,0.00,VWS V13.01,2013-04-27 03:50:00,
2013-04-26 23:52:00,54.8,35.0,24.15,NNE,26,1.0,4.0,47,0.00,,,0.00,VWS V13.01,2013-04-27 03:52:00,
2013-04-26 23:53:00,54.8,34.4,24.15,NNE,26,0.0,4.0,46,0.00,,,0.00,VWS V13.01,2013-04-27 03:53:00,
2013-04-26 23:55:00,54.8,35.0,24.15,NNE,26,1.0,4.0,47,0.00,,,0.00,VWS V13.01,2013-04-27 03:55:00,
2013-04-26 23:57:00,54.8,34.4,24.15,North,5,5.0,5.0,46,0.00,,,0.00,VWS V13.01,2013-04-27 03:57:00,
2013-04-26 23:58:00,54.7,34.3,24.15,North,5,0.0,5.0,46,0.00,,,0.00,VWS V13.01,2013-04-27 03:58:00,